Location: Newark
(42.7133°N, 87.7910°W)
Time: 22:18:17
(UTC+00:00)

Vanguard 1 - Pass Details

Date: 20 September 2019
Orbit: 653 x 3830 km, 34.2° (Epoch: 20 October)

Event Time Altitude Azimuth Distance (km) Brightness Sun altitude
Rises 04:18:31 0° 181° (S) 7,219 - -42.0°
Reaches altitude 10° 04:26:06 10° 164° (SSE) 6,620 - -42.6°
Maximum altitude 04:38:20 18° 130° (SE) 6,264 - -43.6°
Exits shadow 04:48:50 12° 102° (ESE) 6,633 14.0 -44.3°
Drops below altitude 10° 04:50:35 10° 97° (E) 6,753 14.1 -44.4°
Sets 04:58:11 0° 82° (E) 7,435 14.5 -44.8°
